TimeCST,TemperatureF,Dew PointF,Humidity,Sea Level PressureIn,VisibilityMPH,Wind Direction,Wind SpeedMPH,Gust SpeedMPH,PrecipitationIn,Events,Conditions,WindDirDegrees,DateUTC
12:34 AM,33.8,24.8,70,30.02,10.0,WNW,17.3,27.6,N/A,,Overcast,300,2013-03-06 06:34:00
12:52 AM,34.0,25.0,70,30.03,10.0,WNW,17.3,24.2,N/A,,Overcast,290,2013-03-06 06:52:00
1:52 AM,34.0,25.0,70,30.04,10.0,WNW,18.4,29.9,N/A,,Overcast,290,2013-03-06 07:52:00
2:02 AM,33.8,24.8,70,30.03,10.0,WNW,17.3,25.3,N/A,,Overcast,300,2013-03-06 08:02:00
2:32 AM,33.8,24.8,70,30.03,9.0,WNW,15.0,29.9,0.00,,Overcast,300,2013-03-06 08:32:00
2:52 AM,33.1,26.1,75,30.04,6.0,WNW,17.3,26.5,0.00,Snow,Light Snow,300,2013-03-06 08:52:00
3:52 AM,34.0,24.1,67,30.07,10.0,WNW,18.4,25.3,0.00,,Overcast,300,2013-03-06 09:52:00
4:52 AM,34.0,23.0,64,30.10,10.0,WNW,19.6,29.9,N/A,,Overcast,300,2013-03-06 10:52:00
5:52 AM,33.1,23.0,66,30.13,10.0,NW,21.9,28.8,N/A,,Overcast,310,2013-03-06 11:52:00
6:44 AM,33.8,23.0,65,30.15,10.0,NW,20.7,29.9,N/A,,Overcast,320,2013-03-06 12:44:00
6:52 AM,33.1,23.0,66,30.17,10.0,NW,19.6,27.6,N/A,,Overcast,310,2013-03-06 12:52:00
7:52 AM,34.0,24.1,67,30.21,10.0,NW,16.1,24.2,N/A,,Overcast,310,2013-03-06 13:52:00
8:52 AM,34.0,25.0,70,30.25,10.0,NW,16.1,28.8,N/A,,Overcast,310,2013-03-06 14:52:00
9:52 AM,35.1,26.1,70,30.26,10.0,NW,16.1,26.5,N/A,,Overcast,320,2013-03-06 15:52:00
10:52 AM,36.0,27.0,70,30.28,10.0,NNW,17.3,-,N/A,,Overcast,340,2013-03-06 16:52:00
11:52 AM,37.9,27.0,65,30.28,10.0,NNW,20.7,-,N/A,,Overcast,340,2013-03-06 17:52:00
12:52 PM,37.9,27.0,65,30.28,10.0,NNW,18.4,-,N/A,,Overcast,340,2013-03-06 18:52:00
1:43 PM,37.4,26.6,65,30.27,10.0,North,19.6,-,N/A,,Overcast,350,2013-03-06 19:43:00
1:52 PM,37.9,26.1,62,30.29,10.0,NNW,13.8,25.3,N/A,,Overcast,340,2013-03-06 19:52:00
2:52 PM,39.0,26.1,60,30.29,10.0,NNW,12.7,24.2,N/A,,Overcast,330,2013-03-06 20:52:00
3:52 PM,37.9,25.0,60,30.30,10.0,NNW,11.5,-,N/A,,Mostly Cloudy,340,2013-03-06 21:52:00
4:52 PM,37.9,26.1,62,30.31,10.0,North,9.2,-,N/A,,Partly Cloudy,360,2013-03-06 22:52:00
5:52 PM,34.0,26.1,73,30.32,10.0,NNE,5.8,-,N/A,,Clear,20,2013-03-06 23:52:00
6:52 PM,32.0,25.0,75,30.33,10.0,NNE,5.8,-,N/A,,Clear,30,2013-03-07 00:52:00
7:52 PM,30.9,25.0,79,30.33,10.0,NNE,5.8,-,N/A,,Clear,20,2013-03-07 01:52:00
8:52 PM,30.0,24.1,79,30.33,10.0,North,5.8,-,N/A,,Clear,10,2013-03-07 02:52:00
9:52 PM,30.0,24.1,79,30.34,10.0,NNW,4.6,-,N/A,,Mostly Cloudy,340,2013-03-07 03:52:00
10:20 PM,30.2,26.6,86,30.32,10.0,North,8.1,-,N/A,,Overcast,350,2013-03-07 04:20:00
10:52 PM,33.1,25.0,72,30.32,10.0,North,9.2,-,N/A,,Overcast,360,2013-03-07 04:52:00